This demonstration page uses our WeatherBlox Daily Observations layout. Learn more.

Left ArrowRight Arrow

39.92423, -83.80882

Hourly Observations for August 17, 2016

Temp ( °F °C ) Dew Point ( °F °C ) Humidity (%) Winds ( mph kmh ) Pressure ( in mb ) Visibility ( mi km ) Precip ( " mm )
12:56 am 00:56 Cloudy with Light Rain 71 21.7 70 21.1 96 96 WSW 7 11 30.16 1021 10 16.0934 N/A
1:56 am 01:56 Mostly Cloudy with Light Rain 71 21.7 70 21.1 96 96 W 7 11 30.15 1021 10 16.0934 0.01 0.254
2:24 am 02:24 Cloudy with Light Rain 72 22 70 21 94 94 WSW 6 9 30.15 1021 10 16.0934 N/A
2:51 am 02:51 Cloudy 72 22 70 21 94 94 WSW 7 11 30.15 1021 10 16.0934 N/A
2:56 am 02:56 Cloudy with Light Rain 71 21.7 70 21.1 96 96 WSW 7 11 30.15 1021 10 16.0934 N/A
3:56 am 03:56 Cloudy with Light Rain 70 21.1 69 20.6 97 97 W 9 15 30.14 1021 10 16.0934 N/A
4:20 am 04:20 Cloudy with Light Rain 70 21 70 21 100 100 WSW 5 7 30.12 1020 10 16.0934 N/A
4:29 am 04:29 Cloudy with Light Rain 70 21 70 21 100 100 WSW 5 7 30.12 1020 10 16.0934 N/A
4:56 am 04:56 Cloudy with Light Rain 69 20.6 69 20.6 100 100 SW 5 7 30.14 1021 10 16.0934 N/A
5:26 am 05:26 Cloudy with Light Rain 70 21 70 21 100 100 undefined N/A 30.12 1020 9 14.48406 0.01 0.254
5:56 am 05:56 Cloudy with Light Rain 69 20.6 69 20.6 100 100 W 3 6 30.13 1020 10 16.0934 0.01 0.254
6:22 am 06:22 Cloudy with Light Rain 70 21 68 20 94 94 undefined N/A 30.12 1020 10 16.0934 N/A
6:56 am 06:56 Cloudy 69 20.6 68 20 96 96 N N/A 30.14 1021 10 16.0934 0.01 0.254
7:12 am 07:12 Cloudy 70 21 68 20 94 94 N N/A 30.15 1021 10 16.0934 N/A
7:56 am 07:56 Cloudy with Light Rain 69 20.6 69 20.6 100 100 undefined N/A 30.15 1021 10 16.0934 N/A
8:03 am 08:03 Cloudy with Light Rain 70 21 70 21 100 100 SSW 3 6 30.15 1021 10 16.0934 N/A
8:10 am 08:10 Cloudy with Light Rain 70 21 70 21 100 100 SW 3 6 N/A 10 16.0934 N/A
8:46 am 08:46 Mostly Cloudy 70 21 70 21 100 100 N N/A 30.15 1021 10 16.0934 0.01 0.254
8:56 am 08:56 Partly Cloudy 70 21.1 69 20.6 97 97 SSW 3 6 30.15 1021 10 16.0934 0.01 0.254
9:35 am 09:35 Cloudy 72 22 70 21 94 94 WSW 3 6 30.15 1021 10 16.0934 N/A
9:56 am 09:56 Cloudy 72 22.2 69 20.6 91 91 SW 6 9 30.16 1021 10 16.0934 N/A
10:16 am 10:16 Cloudy 72 22 70 21 94 94 SW 6 9 30.15 1021 10 16.0934 N/A
10:52 am 10:52 Cloudy 72 22 70 21 94 94 WSW 5 7 30.15 1021 10 16.0934 N/A
10:56 am 10:56 Cloudy 71 21.7 70 21.1 96 96 SW 5 7 30.16 1021 10 16.0934 N/A
11:22 am 11:22 Cloudy 72 22 70 21 94 94 SW 6 9 N/A 10 16.0934 0.01 0.254
11:39 am 11:39 Cloudy 73 23 70 21 89 89 W 5 7 30.15 1021 10 16.0934 0.01 0.254
11:47 am 11:47 Cloudy 73 23 70 21 89 89 undefined N/A N/A 10 16.0934 0.01 0.254
11:56 am 11:56 Cloudy 73 22.8 70 21.1 90 90 N N/A 30.15 1021 10 16.0934 0.01 0.254
12:29 pm 12:29 Cloudy 73 23 70 21 89 89 WSW 7 11 30.15 1021 10 16.0934 0.01 0.254
12:56 pm 12:56 Cloudy 76 24.4 70 21.1 82 82 WSW 6 9 30.13 1020 10 16.0934 0.01 0.254
1:39 pm 13:39 Partly Cloudy 77 25 70 21 79 79 NW 3 6 N/A 10 16.0934 N/A
1:56 pm 13:56 Partly Cloudy 77 25 70 21.1 79 79 undefined N/A 30.1 1019 10 16.0934 N/A
2:17 pm 14:17 Mostly Cloudy 79 26 72 22 79 79 WNW 5 7 N/A 10 16.0934 0.01 0.254
2:32 pm 14:32 Partly Cloudy 81 27 70 21 70 70 W 5 7 N/A 10 16.0934 0.01 0.254
2:56 pm 14:56 Mostly Cloudy 81 27.2 70 21.1 69 69 undefined N/A N/A 10 16.0934 0.02 0.508
3:32 pm 15:32 Cloudy 81 27 70 21 70 70 VRB 5 7 30.03 1017 10 16.0934 0.01 0.254
3:56 pm 15:56 Mostly Cloudy 80 26.7 70 21.1 71 71 W 8 13 30.07 1018 10 16.0934 0.02 0.508
4:03 pm 16:03 Partly Cloudy 81 27 70 21 70 70 undefined N/A 30.03 1017 10 16.0934 N/A
4:56 pm 16:56 Partly Cloudy 81 27.2 70 21.1 69 69 WNW 7 11 30.07 1018 10 16.0934 0.02 0.508
5:56 pm 17:56 Sunny 80 26.7 70 21.1 71 71 WSW 6 9 N/A 10 16.0934 0.01 0.254
6:56 pm 18:56 Sunny 79 26.1 70 21.1 74 74 W 6 9 30.06 1018 10 16.0934 0.02 0.508
7:56 pm 19:56 Sunny 77 25 71 21.7 82 82 W 3 6 30.07 1018 10 16.0934 0.01 0.254
8:56 pm 20:56 Clear 74 23.3 70 21.1 88 88 N N/A 30.09 1019 10 16.0934 0.02 0.508
9:56 pm 21:56 Clear 71 21.7 68 20 90 90 WSW 6 9 30.11 1020 10 16.0934 0.01 0.254
10:56 pm 22:56 Clear 70 21.1 68 20 93 93 SSW 7 11 30.11 1020 10 16.0934 N/A
11:56 pm 23:56 Clear 68 20 67 19.4 96 96 WSW 5 7 30.11 1020 10 16.0934 N/A

Powered by AerisWeather